FW5940 Weather Reports


Display with metric or nautical units.
time (UTC)temp
F
wind
direction
speed
MPH
gust
MPH
rain 1hr
in
rain 24hr
in
rain mn
in
humidity
%
barometer
mb
20260905091015 61 158 2.0 6.0 0.01 0.13 0.13 87 1023.2
20260905090018 61 172 5.0 10.0 0.01 0.13 0.13 87 1023.0
20260905085016 61 179 3.0 6.0 0.01 0.13 0.13 86 1023.2
20260905084017 60 176 3.0 6.0 0.01 0.13 0.13 85 1023.1
20260905083018 61 117 3.0 8.0 0.00 0.12 0.12 84 1023.1
20260905082018 61 155 3.0 6.0 0.00 0.12 0.12 83 1023.1
20260905081016 61 123 2.0 5.0 0.00 0.12 0.12 83 1023.1
20260905080016 61 125 2.0 4.0 0.00 0.12 0.12 85 1023.1
20260905075018 61 144 0.0 2.0 0.00 0.12 0.12 85 1023.2
20260905074027 60 9 2.0 5.0 0.00 0.12 0.12 86 1023.0
20260905073020 60 178 2.0 6.0 0.00 0.12 0.12 87 1022.9
20260905072019 60 121 3.0 6.0 0.01 0.12 0.12 87 1022.8
20260905071017 59 123 1.0 4.0 0.01 0.12 0.12 88 1022.9
20260905070023 59 155 1.0 3.0 0.03 0.12 0.12 87 1023.0
20260905065016 59 147 2.0 6.0 0.05 0.12 0.12 88 1022.8
20260905064021 59 127 3.0 6.0 0.05 0.12 0.12 87 1022.5
20260905063017 59 123 1.0 4.0 0.05 0.12 0.12 87 1022.5
20260905062017 59 123 1.0 4.0 0.04 0.11 0.11 87 1022.3
20260905061016 59 151 2.0 3.0 0.04 0.11 0.11 86 1022.3
20260905060016 59 155 1.0 4.0 0.02 0.09 0.09 86 1022.4
20260905055017 59 132 3.0 5.0 0.01 0.07 0.07 86 1022.3
20260905054040 59 50 1.0 3.0 0.07 0.07 0.07 86 1022.4
20260905053019 59 23 0.0 2.0 0.07 0.07 0.07 85 1022.1
20260905052016 59 305 1.0 2.0 0.07 0.07 0.07 85 1022.1
20260905051019 59 312 1.0 4.0 0.07 0.07 0.07 84 1022.1
20260905050017 59 312 1.0 2.0 0.07 0.07 0.07 82 1021.8
20260905045018 61 316 2.0 4.0 0.06 0.06 0.06 79 1021.8
20260905044015 62 298 4.0 7.0 0.00 0.00 0.00 73 1021.6
20260905043015 64 354 6.0 11.0 0.00 0.00 0.00 68 1021.1
20260905042040 65 344 5.0 12.0 0.00 0.00 0.00 64 1020.9
20260905041016 65 343 6.0 12.0 0.00 0.00 0.00 64 1020.6
20260905040017 65 344 8.0 16.0 0.00 0.00 0.00 65 1020.3
20260905035017 65 333 6.0 15.0 0.00 0.00 0.00 66 1020.1
20260905034038 65 350 8.0 14.0 0.00 0.00 0.00 66 1019.8
20260905033020 66 349 8.0 15.0 0.00 0.00 0.00 66 1019.7
20260905032016 66 336 9.0 15.0 0.00 0.00 0.00 68 1019.6
20260905031017 67 327 9.0 17.0 0.00 0.00 0.00 70 1019.4
20260905030016 68 308 5.0 13.0 0.00 0.00 0.00 71 1019.0
20260905025017 70 322 9.0 19.0 0.00 0.00 0.00 69 1018.7
20260905024017 70 314 7.0 17.0 0.00 0.00 0.00 69 1018.4
20260905023015 70 264 3.0 8.0 0.00 0.00 0.00 69 1018.1
20260905022016 70 255 2.0 7.0 0.00 0.00 0.00 68 1018.0
20260905021018 71 219 3.0 8.0 0.00 0.00 0.00 67 1017.9
20260905020018 71 235 3.0 6.0 0.00 0.00 0.00 66 1017.9
20260905015017 72 235 3.0 8.0 0.00 0.00 0.00 66 1017.8
20260905014020 71 238 4.0 9.0 0.00 0.00 0.00 66 1017.7
20260905013017 71 246 4.0 10.0 0.00 0.00 0.00 66 1017.8
20260905012016 72 247 3.0 7.0 0.00 0.00 0.00 65 1017.8
20260905011015 71 252 3.0 7.0 0.00 0.00 0.00 66 1017.7
20260905010138 71 248 3.0 9.0 0.00 0.00 0.00 65 1017.6
20260905005017 71 247 4.0 12.0 0.00 0.00 0.00 65 1017.6
20260905004016 71 259 3.0 8.0 0.00 0.00 0.00 66 1017.7
20260905003017 71 259 3.0 8.0 0.00 0.00 0.00 65 1017.6
20260905002018 71 279 3.0 8.0 0.00 0.00 0.00 66 1017.6
20260905001018 71 233 3.0 7.0 0.00 0.00 0.00 65 1017.3
20260905000015 71 227 4.0 9.0 0.00 0.00 0.00 65 1017.3
20260904235015 71 221 3.0 5.0 0.00 0.00 0.00 64 1017.2
20260904234017 72 220 3.0 6.0 0.00 0.00 0.00 62 1017.2
20260904233015 73 224 4.0 7.0 0.00 0.00 0.00 61 1017.2
20260904232017 73 224 6.0 12.0 0.00 0.00 0.00 61 1017.2
20260904231017 73 226 5.0 8.0 0.00 0.00 0.00 61 1017.1
20260904230019 72 234 5.0 10.0 0.00 0.00 0.00 62 1017.0
20260904225016 71 237 5.0 10.0 0.00 0.00 0.00 63 1016.9
20260904224015 71 234 3.0 5.0 0.00 0.00 0.00 63 1016.9
20260904223016 71 211 3.0 5.0 0.00 0.00 0.00 61 1016.9
20260904222017 72 201 3.0 6.0 0.00 0.00 0.00 60 1016.9
20260904221019 72 201 3.0 7.0 0.00 0.00 0.00 60 1016.8
20260904220016 73 208 3.0 7.0 0.00 0.00 0.00 59 1016.7
20260904215016 73 203 4.0 7.0 0.00 0.00 0.00 58 1016.7
20260904214018 73 201 4.0 7.0 0.00 0.00 0.00 58 1016.6
20260904213016 74 213 4.0 8.0 0.00 0.00 0.00 57 1016.6
20260904212017 74 218 5.0 9.0 0.00 0.00 0.00 57 1016.6
20260904211016 73 218 4.0 8.0 0.00 0.00 0.00 57 1016.6
20260904210017 73 215 4.0 7.0 0.00 0.00 0.00 56 1016.5
20260904205017 73 210 4.0 8.0 0.00 0.00 0.00 56 1016.5
20260904204017 74 209 4.0 9.0 0.00 0.00 0.00 56 1016.5
20260904203015 74 207 4.0 9.0 0.00 0.00 0.00 56 1016.5
20260904202015 74 211 4.0 8.0 0.00 0.00 0.00 55 1016.5
20260904201017 73 205 5.0 8.0 0.00 0.00 0.00 55 1016.4
20260904200016 73 199 4.0 9.0 0.00 0.00 0.00 56 1016.4
20260904195057 73 188 3.0 7.0 0.00 0.00 0.00 56 1016.4
20260904194021 73 192 3.0 6.0 0.00 0.00 0.00 56 1016.4
20260904193017 74 201 4.0 5.0 0.00 0.00 0.00 55 1016.4
20260904192016 74 207 3.0 6.0 0.00 0.00 0.00 54 1016.4
20260904191015 75 210 3.0 5.0 0.00 0.00 0.00 54 1016.3
20260904190017 75 225 3.0 7.0 0.00 0.00 0.00 54 1016.2
20260904185026 75 229 3.0 6.0 0.00 0.00 0.00 52 1016.2
20260904184017 76 217 4.0 10.0 0.00 0.00 0.00 52 1016.2
20260904183016 76 189 2.0 5.0 0.00 0.00 0.00 52 1016.1
20260904182016 77 213 3.0 6.0 0.00 0.00 0.00 50 1016.0
20260904181036 77 223 3.0 6.0 0.00 0.00 0.00 49 1015.8
20260904180016 79 225 4.0 8.0 0.00 0.00 0.00 47 1015.7
20260904175101 79 228 4.0 9.0 0.00 0.00 0.00 46 1015.5
20260904174017 80 222 7.0 16.0 0.00 0.00 0.00 45 1015.4
20260904173017 81 234 4.0 11.0 0.00 0.00 0.00 43 1015.2
20260904172016 82 231 7.0 15.0 0.00 0.00 0.00 41 1015.2
20260904171016 82 230 9.0 19.0 0.00 0.00 0.00 41 1015.1
20260904170017 83 239 6.0 15.0 0.00 0.00 0.00 42 1015.1
20260904165017 84 239 4.0 9.0 0.00 0.00 0.00 40 1015.0
20260904164019 84 244 7.0 13.0 0.00 0.00 0.00 39 1015.0
20260904163017 85 234 6.0 15.0 0.00 0.00 0.00 39 1015.1
20260904162018 85 246 5.0 12.0 0.00 0.00 0.00 38 1015.1
20260904161018 86 236 7.0 16.0 0.00 0.00 0.00 37 1015.1
20260904160016 86 249 8.0 16.0 0.00 0.00 0.00 37 1015.2
20260904155030 86 251 8.0 14.0 0.00 0.00 0.00 36 1015.3
20260904154036 87 234 7.0 15.0 0.00 0.00 0.00 35 1015.3
20260904153041 87 234 6.0 12.0 0.00 0.00 0.00 35 1015.4
20260904152015 87 234 9.0 16.0 0.00 0.00 0.00 34 1015.4
20260904151017 88 231 10.0 19.0 0.00 0.00 0.00 33 1015.4
20260904150015 88 233 10.0 18.0 0.00 0.00 0.00 33 1015.5
20260904145017 88 246 9.0 18.0 0.00 0.00 0.00 33 1015.6
20260904144018 89 235 8.0 16.0 0.00 0.00 0.00 33 1015.7
20260904143036 89 229 8.0 16.0 0.00 0.00 0.00 33 1015.8
20260904142017 88 233 10.0 17.0 0.00 0.00 0.00 33 1015.9
20260904141017 89 229 8.0 15.0 0.00 0.00 0.00 33 1015.9
20260904140039 89 233 11.0 21.0 0.00 0.00 0.00 33 1016.0
20260904135016 89 246 8.0 15.0 0.00 0.00 0.00 33 1016.0
20260904134017 89 243 10.0 19.0 0.00 0.00 0.00 33 1016.1
20260904133017 88 231 9.0 16.0 0.00 0.00 0.00 34 1016.3
20260904132035 88 225 10.0 19.0 0.00 0.00 0.00 37 1016.3
20260904131057 88 225 9.0 16.0 0.00 0.00 0.00 37 1016.6
20260904130016 88 219 10.0 20.0 0.00 0.00 0.00 37 1016.9
20260904125016 88 227 9.0 15.0 0.00 0.00 0.00 37 1017.0
20260904124036 87 220 9.0 15.0 0.00 0.00 0.00 38 1017.2
20260904123016 87 217 8.0 13.0 0.00 0.00 0.00 39 1017.3
20260904122017 87 226 8.0 15.0 0.00 0.00 0.00 39 1017.4
20260904121015 86 224 9.0 20.0 0.00 0.00 0.00 40 1017.6
20260904120018 86 216 9.0 16.0 0.00 0.00 0.00 42 1017.8
20260904115016 85 217 7.0 11.0 0.00 0.00 0.00 42 1018.1
20260904114017 85 230 5.0 11.0 0.00 0.00 0.00 43 1018.2
20260904113016 85 223 8.0 16.0 0.00 0.00 0.00 43 1018.4
20260904112016 85 264 7.0 14.0 0.00 0.00 0.00 44 1018.5
20260904111043 84 225 6.0 12.0 0.00 0.00 0.00 44 1018.6
20260904110015 83 236 7.0 14.0 0.00 0.00 0.00 44 1018.9
20260904105017 83 238 8.0 16.0 0.00 0.00 0.00 44 1019.0
20260904104029 83 229 8.0 15.0 0.00 0.00 0.00 45 1019.2
20260904103018 82 224 10.0 19.0 0.00 0.00 0.00 44 1019.5
20260904102015 82 228 7.0 14.0 0.00 0.00 0.00 46 1019.7
20260904101018 81 220 9.0 16.0 0.00 0.00 0.00 46 1019.8
20260904100016 81 234 9.0 20.0 0.00 0.00 0.00 46 1019.9
20260904095018 81 239 6.0 16.0 0.00 0.00 0.00 49 1020.1
20260904094039 79 232 4.0 10.0 0.00 0.00 0.00 51 1020.2
20260904093016 79 214 7.0 14.0 0.00 0.00 0.00 51 1020.4
20260904092039 79 224 4.0 9.0 0.00 0.00 0.00 53 1020.6